Location: Baldwin Hills
(34.0058°N, 118.3414°W)
Time: 01:45:20
(UTC+00:00)

Daily predictions for brighter satellites

Satellite Brightness Start Highest point End
(mag) Time Altitude Azimuth Time Altitude Azimuth Time Altitude Azimuth
Cosmos 1470 Rocket 3.8 03:24:58 10° N 03:29:22 55° E 03:33:45 10° SSE
Cosmos 2084 Rocket 4.0 03:28:30 10° NNW 03:32:02 36° NE 03:35:39 10° ESE
MINOTAUR 4 R/B 3.8 03:28:53 10° NNE 03:32:14 83° ESE 03:35:34 10° S
SJ-6B 2.9 03:30:14 10° SSE 03:34:15 89° W 03:38:18 10° NNW
Cosmos 1271 Rocket 3.8 03:31:11 10° NNE 03:34:24 26° ENE 03:37:33 10° SE
Cosmos 1943 Rocket 2.2 03:31:31 10° NNW 03:37:04 86° WSW 03:42:37 10° SSE
Cosmos 1733 4.4 03:34:11 10° NNE 03:37:17 25° ENE 03:40:23 10° SE
Cosmos 1814 Rocket 4.4 03:33:35 10° N 03:38:37 47° ENE 03:43:40 10° SE
SL-8 Rocket 4.0 03:34:58 10° S 03:41:03 64° E 03:47:13 10° NNE
Cosmos 1943 3.6 03:36:59 10° S 03:42:09 39° ESE 03:47:22 10° NE
Aurora 2 Rocket 3.9 03:40:36 10° SW 03:43:39 18° S 03:46:06 11° SE
Cosmos 2228 Rocket 4.4 03:44:37 10° SE 03:47:57 22° E 03:51:18 10° NE
ATLAS 3B R/B 2.9 03:44:20 10° S 03:50:38 50° ESE 03:57:24 10° NE
Cosmos 2218 Rocket 4.0 03:45:38 10° S 03:51:43 65° E 03:57:47 10° NNE
CSL-04 Rocket 3.6 03:46:39 10° SSE 03:51:56 79° ENE 03:57:18 10° N
CSL-04 Debris 4.2 03:47:20 10° SSE 03:52:45 90° N 03:58:10 10° NNW
Resurs 1-3 3.8 03:50:07 10° S 03:54:27 71° WSW 03:58:49 10° NNW
Aureole 3 3.0 03:52:22 10° SSW 03:55:21 64° W 03:58:19 10° N
SL-16 R/B 3.9 03:50:41 10° SW 03:55:56 38° WNW 04:01:11 10° N
NOSS 2-2 (E) 3.6 03:53:09 10° S 03:56:24 31° ESE 03:59:18 10° NE
Meteor 1-18 Rocket 4.5 03:51:12 10° SSW 03:56:58 77° W 04:02:40 10° N
BREEZE-M DEB (TANK) 2.9 03:54:46 10° NW 03:57:38 68° NE 04:04:42 13° SE
Cosmos 1726 2.4 03:55:47 10° N 03:59:07 43° E 04:01:48 14° SSE
Meteor 2-10 4.0 03:55:08 10° N 04:00:12 64° E 04:05:09 10° SSE
NOSS 2-3 (E) 3.3 03:58:07 10° SSW 04:01:52 80° WNW 04:05:47 10° NNE
Cosmos 1656 Rocket 4.1 04:04:50 10° N 04:10:14 46° ENE 04:14:07 18° SE
IRS-1C Rocket 4.1 04:08:12 12° SSE 04:12:58 67° ENE 04:18:11 10° N
Meteor 2-11 Rocket 4.4 04:07:04 10° S 04:13:03 68° E 04:19:07 10° NNE
Cosmos 724 4.5 04:07:17 10° NNW 04:13:30 80° WSW 04:18:44 14° SSE
COSMOS 2455 3.6 04:08:37 10° N 04:14:14 39° ENE 04:18:12 18° ESE
Cosmos 1933 Rocket 3.6 04:10:38 10° N 04:14:58 81° W 04:19:16 10° S
Okean O Rocket 3.6 04:11:23 10° SSW 04:15:08 27° W 04:18:55 10° NW
USA 186 3.9 04:12:42 10° SSW 04:15:17 24° W 04:17:52 10° NW
Cosmos 2366 rocket 4.2 04:09:05 10° S 04:15:19 78° W 04:21:30 10° N
ASTRO E2 2.7 04:19:55 10° W 04:23:36 54° S 04:25:19 28° ESE
Resurs 01 Rocket 1.7 04:22:05 14° S 04:25:54 78° W 04:30:21 10° NNW
SPOT 5 4.0 04:24:22 19° ESE 04:26:09 25° ENE 04:29:45 10° NNE
USA 267 4.2 04:26:20 10° ENE 04:31:12 22° ESE 04:31:37 22° SE
Cosmos 1626 3.5 04:32:55 20° E 04:32:55 20° E 04:35:13 10° NE
DELTA 2 R/B (1) 4.0 04:27:15 10° W 04:32:44 63° NNW 04:38:14 10° ENE
Cosmos 2208 Rocket 4.1 04:28:52 10° N 04:34:06 64° ENE 04:36:56 26° SE
Cosmos 1766 3.8 04:32:13 10° NNE 04:35:45 37° E 04:36:35 32° ESE
Cosmos 1805 3.4 04:32:00 10° NNW 04:35:45 68° W 04:38:11 21° S
Cosmos 2369 Rocket 2.2 04:30:44 10° NNW 04:36:27 78° ENE 04:39:50 25° SSE
Cosmos 1869 Rocket 3.4 04:33:34 10° N 04:37:54 88° W 04:40:28 24° S
Cosmos 1975 4.4 04:35:34 10° NNW 04:39:05 32° W 04:42:36 10° SSW
Cosmos 2297 4.2 04:35:17 10° NNW 04:40:48 56° WSW 04:45:02 17° S
Centaur AC-125 4.0 04:39:38 10° SW 04:43:13 19° S 04:43:13 19° S
Cosmos 1821 Rocket 4.0 04:39:53 10° S 04:46:00 87° W 04:52:16 10° N
USA 32 4.2 04:41:00 10° N 04:46:14 73° W 04:50:13 18° S
CARTOSAT-1 3.8 04:44:11 23° S 04:46:45 66° W 04:51:01 10° NNW
SPOT 3 Rocket 4.3 04:46:01 28° ESE 04:47:48 37° ENE 04:52:30 10° N
Okean-O 4.3 04:46:53 10° SSW 04:50:45 30° W 04:54:39 10° NW
Meteor 1-13 Rocket 4.1 04:46:28 15° S 04:51:16 85° E 04:56:53 10° N
MOS 1 4.4 04:47:56 21° S 04:51:48 73° WSW 04:57:27 10° NNW
USA 245 3.7 04:53:22 32° ENE 04:53:22 32° ENE 04:55:35 10° N
USA 229 DEB 4.5 04:55:29 25° E 04:55:29 25° E 04:59:56 10° ENE
Cosmos 1842 3.0 04:57:24 53° SSE 04:58:11 75° E 05:02:01 10° N
MetOp-A 3.5 04:57:09 44° SSE 04:58:27 79° ENE 05:02:59 10° N
SL-4 R/B 3.0 04:56:03 10° NNW 04:58:56 26° NE 04:59:29 25° NE
ERS-1 Rocket 3.5 04:58:11 35° ESE 04:59:33 44° ENE 05:04:19 10° N
Cosmos 1503 Rocket 4.0 04:57:11 12° SSW 05:02:13 84° WNW 05:07:37 10° NNE
SJ 16-02 3.3 04:58:36 10° SW 05:02:24 28° WNW 05:06:14 10° N
Cosmos 2263 4.1 04:58:00 10° NNW 05:03:41 85° WSW 05:06:00 37° SSE
Cosmos 1354 Rocket 3.9 05:01:02 24° S 05:04:17 78° ESE 05:09:37 10° NNE
Milstar 3 Cent rocket 2.7 05:01:15 10° WSW 05:06:16 53° S 05:10:04 28° ESE
Cosmos 1707 Rocket 3.9 05:04:25 24° SSW 05:06:52 61° W 05:11:11 10° N
Cosmos 2098 Rocket 3.5 05:02:24 10° N 05:07:20 89° E 05:09:51 35° S
USA 281 3.2 05:03:02 10° NNE 05:09:29 56° ESE 05:12:30 32° S
Cosmos 1174 4.3 05:06:48 10° NNW 05:10:49 58° ENE 05:11:34 50° ESE
KORONAS-FOTON 4.2 05:11:56 48° ENE 05:11:56 48° ENE 05:15:02 10° NNE
CZ-4C R/B 3.4 05:08:43 10° N 05:10:52 45° N 05:10:52 45° N
NOSS 3-1 (C) 3.9 05:10:10 10° SW 05:14:52 48° NW 05:20:16 10° NNE
Meteor 1-15 Rocket 4.3 05:11:07 10° N 05:16:44 63° E 05:18:10 47° SE
NOSS 3-1 (A) 2.8 05:14:53 32° SSW 05:17:10 78° ESE 05:22:39 10° NNE
Cosmos 158 Rocket 4.4 05:12:27 10° N 05:17:41 50° ENE 05:18:40 44° ESE
Cosmos 1862 Rocket 3.8 05:17:13 38° SSW 05:18:43 64° W 05:23:01 10° N
Meteor 1-12 Rocket 4.3 05:15:47 10° N 05:21:45 70° E 05:23:18 49° SE
Cosmos 1535 Rocket 4.5 05:20:20 45° SSE 05:22:01 62° E 05:28:02 10° NNE
Terra 1.8 05:21:43 57° ESE 05:22:14 61° ENE 05:26:53 10° N
Cosmos 1707 2.9 05:29:50 68° NW 05:29:50 68° NW 05:33:22 10° N
Cosmos 1777 Rocket 4.1 05:27:08 30° SSW 05:29:43 72° WNW 05:35:00 10° NNE
ADEOS Rocket 3.5 05:28:20 30° S 05:31:37 59° WSW 05:37:42 10° NNW
BREEZE-M R/B 4.3 05:24:33 10° NW 05:31:50 41° NNE 05:33:19 32° ENE
APEX 3.7 05:28:26 10° NNW 05:33:13 76° ENE 05:33:42 69° ESE
Cosmos 2123 Rocket 3.9 05:29:35 10° N 05:35:51 80° E 05:37:25 53° SSE
Cosmos 1833 Rocket 4.4 05:39:01 18° ENE 05:39:01 18° ENE 05:41:09 10° NE
Cosmos 1733 Rocket 3.4 05:32:55 10° NNW 05:37:06 53° W 05:37:30 51° WSW
Ariane Rocket 3.6 05:36:26 39° SW 05:37:49 49° W 05:42:45 10° NNW
Okean 1-7 3.2 05:38:43 62° NNE 05:38:43 62° NNE 05:42:21 10° N
Spot 2 Rocket 3.5 05:41:58 62° SSW 05:42:39 71° WSW 05:47:42 10° NNW
H-2A R/B 2.7 05:43:43 10° NNE 05:47:08 47° NE 05:47:08 47° NE
Cosmos 783 Rocket 4.4 05:43:37 10° NNW 05:48:52 75° ENE 05:49:01 74° E
Cosmos 1908 Rocket 4.1 05:46:23 10° N 05:50:02 52° NE 05:50:02 52° NE
Cosmos 1605 Rocket 3.8 05:49:57 62° S 05:51:02 85° E 05:57:09 10° N
H-2A R/B 3.4 05:53:18 39° WNW 05:53:18 39° WNW 05:56:30 10° NNW
Cosmos 1674 4.1 05:53:31 33° WNW 05:53:31 33° WNW 05:56:18 10° NNW
Cosmos 990 Rocket 4.4 05:55:43 48° ENE 05:55:43 48° ENE 05:59:46 10° NNE
Cosmos 1703 Rocket 4.0 05:57:31 60° NNW 05:57:31 60° NNW 06:01:08 10° N
BREEZE-M DEB (TANK) 4.0 05:46:58 10° NW 05:58:16 64° NNE 05:58:52 58° ENE
COSMOS 2455 4.2 05:54:54 10° NW 05:59:54 28° WSW 06:01:21 25° SW
SPOT 5 4.4 06:03:33 24° WSW 06:04:05 25° W 06:07:46 10° NW
Cosmos 1470 4.4 06:01:24 10° NNW 06:04:18 30° WNW 06:04:18 30° WNW
Meteor 2-13 Rocket 4.3 06:02:43 10° N 06:08:53 80° E 06:09:14 77° SE
USA 267 3.2 06:07:58 10° NE 06:14:31 80° NW 06:18:50 23° SW
BlueWalker 3 4.1 06:13:38 10° NNW 06:16:01 23° NNE 06:16:01 23° NNE
DELTA 2 R/B (1) 4.4 06:14:19 10° WNW 06:19:40 47° N 06:21:54 31° NE
Meteor 2-10 Rocket 4.0 06:22:38 10° N 06:27:10 55° NE 06:27:10 55° NE
Cosmos 2173 Rocket 4.1 06:34:40 60° ENE 06:34:40 60° ENE 06:40:05 10° NNE
Cosmos 371 Rocket 4.5 06:38:08 37° NNE 06:38:08 37° NNE 06:41:04 10° NNE
Cosmos 2082 Rocket 4.2 06:39:10 17° ENE 06:39:10 17° ENE 06:40:51 10° NE
Cosmos 1898 Rocket 4.2 06:40:16 49° NNE 06:40:16 49° NNE 06:44:04 10° NNE
ARIANE 5 R/B 4.0 06:43:40 36° NW 06:43:40 36° NW 06:46:28 10° NNW
USA 229 DEB 4.3 06:42:48 31° WSW 06:45:21 46° NW 06:51:39 10° NNE
USA 229 4.3 06:42:59 31° WSW 06:45:27 47° NW 06:51:45 10° NNE
Cosmos 1697 Rocket 4.0 06:42:54 10° N 06:47:37 29° ENE 06:47:37 29° ENE
Cosmos 1802 Rocket 4.3 06:48:40 59° ENE 06:48:40 59° ENE 06:54:17 10° NNE
Cosmos 2016 Rocket 4.3 06:57:46 56° ENE 06:57:46 56° ENE 07:03:14 10° NNE
Terra 4.4 07:00:28 10° W 07:00:28 10° W 07:01:02 10° W
Cosmos 2100 Rocket 4.3 07:12:53 55° WNW 07:12:53 55° WNW 07:18:36 10° N
Cosmos 1833 Rocket 3.6 07:20:39 41° WNW 07:20:39 41° WNW 07:25:49 10° N
Cosmos 1725 Rocket 4.2 07:26:54 70° NNW 07:26:54 70° NNW 07:32:30 10° N
Lacrosse 5 rocket 4.1 07:25:31 10° N 07:28:12 16° NE 07:28:36 15° NE
COSMOS 2406 3.9 07:37:30 49° NNE 07:37:30 49° NNE 07:41:35 10° NNE
Cosmos 1980 Rocket 3.3 07:36:36 10° N 07:41:11 37° NE 07:41:11 37° NE
Tsikada Rocket 4.3 07:37:21 10° N 07:42:49 64° NNE 07:42:49 64° NNE
CENTAUR R/B 4.3 08:01:10 10° NNW 08:09:01 39° NE 08:15:46 16° ESE
Cosmos 1464 Rocket 4.5 08:20:56 52° ENE 08:20:56 52° ENE 08:26:18 10° NNE
Cosmos 2082 Rocket 3.3 08:20:59 37° NW 08:20:59 37° NW 08:25:32 10° N
USA 234 3.2 08:26:50 78° ENE 08:27:00 78° NE 08:33:32 10° NW
Cosmos 1697 Rocket 4.4 08:26:41 10° NW 08:29:20 24° WNW 08:29:20 24° WNW
Lacrosse 5 3.7 08:35:03 24° ENE 08:35:03 24° ENE 08:37:17 10° NE
CZ-2D R/B 4.0 08:34:18 10° NE 08:37:32 20° E 08:37:32 20° E
Cosmos 2322 Rocket 4.4 08:38:15 10° NNE 08:42:21 20° ENE 08:45:26 13° E
SL-16 R/B 3.6 08:40:20 10° N 08:45:22 32° ENE 08:46:39 29° E
Iridium 4 Rocket 4.0 08:51:56 69° NNE 08:51:56 69° NNE 08:57:06 10° N
Cosmos 2344 3.5 09:04:22 63° WSW 09:05:26 72° WNW 09:12:44 10° NNE
Lacrosse 5 rocket 4.0 09:03:00 10° NW 09:03:49 15° NW 09:03:49 15° NW
ADEOS II 3.3 09:15:19 10° NE 09:19:56 31° E 09:20:11 31° ESE
Cosmos 2228 4.3 09:17:21 10° N 09:20:24 39° NE 09:20:24 39° NE
Cosmos 1980 Rocket 4.1 09:21:12 10° NW 09:22:54 17° WNW 09:22:54 17° WNW
Cosmos 2333 Rocket 4.3 09:21:25 10° N 09:25:50 23° ENE 09:30:14 10° ESE
Resurs 1-4 Rocket 2.2 09:24:55 10° NNE 09:30:00 72° E 09:30:00 72° E
Cosmos 2278 4.4 09:28:44 10° NNW 09:32:46 41° WNW 09:32:46 41° WNW
Nadezhda 4 Rocket 4.0 09:30:57 10° NNW 09:36:56 59° W 09:36:56 59° W
IDEFIX/ARIANE 42P 2.7 09:31:57 10° NNE 09:37:10 64° ESE 09:37:13 64° ESE
Cosmos 2279 Rocket 4.4 09:42:31 43° SE 09:44:08 54° E 09:50:09 10° NNE
Cosmos 1092 Rocket 3.9 09:39:19 10° N 09:45:32 83° E 09:46:40 62° SSE
NPP 3.5 09:40:31 10° NNE 09:45:56 86° WNW 09:46:05 84° SW
Thor Agena Rocket 4.2 09:48:13 10° NNE 09:53:18 47° E 09:54:19 41° SE
OAO 1 4.5 09:57:05 67° SSE 09:57:05 67° SSE 10:02:21 10° E
Cosmos 1627 Rocket 4.4 09:51:44 10° N 09:57:57 83° W 09:59:18 58° S
SL-27 R/B 4.1 09:59:51 30° NE 09:59:51 30° NE 10:01:50 10° NNE
CENTAUR R/B 3.4 09:51:39 10° NW 10:00:06 54° WSW 10:02:47 42° SSW
Cosmos 1238 Rocket 4.3 09:54:28 10° NNW 10:00:17 44° W 10:00:19 44° W
Cosmos 1441 Rocket 4.3 09:57:10 10° N 10:00:44 38° ENE 10:00:48 38° E
Tiangong 0.2 10:05:52 22° N 10:06:22 23° N 10:09:00 10° ENE
Cosmos 2026 Rocket 3.9 10:02:29 10° NNW 10:08:36 68° W 10:09:52 54° SSW
NOSS 3-2 (A) 4.3 10:01:40 10° NW 10:09:27 52° WSW 10:12:25 38° SSW
Cosmos 2142 Rocket 4.5 10:08:52 47° S 10:10:54 86° E 10:17:19 10° N
UNK 4.3 10:11:46 33° SE 10:13:38 55° ENE 10:18:12 10° N
Lacrosse 5 3.3 10:14:14 25° WNW 10:15:35 28° NW 10:19:56 10° NNE
Cosmos 1400 Rocket 3.9 10:17:50 34° NW 10:17:50 34° NW 10:20:47 10° N
CZ-2D R/B 2.7 10:13:23 10° N 10:18:17 39° WNW 10:18:50 38° W
Cosmos 2322 Rocket 2.3 10:21:12 10° NNW 10:26:37 49° WSW 10:27:10 48° SW
Cosmos 2360 Rocket 2.0 10:22:04 10° NNW 10:27:41 73° WSW 10:29:59 36° S
SL-16 R/B 3.2 10:24:29 10° NW 10:28:26 28° W 10:28:26 28° W
SL-16 R/B 2.4 10:26:31 32° S 10:29:31 77° WSW 10:35:42 10° NNW
Geosat 3.8 10:30:25 36° SSE 10:32:29 74° WSW 10:37:32 10° NNW
ARGOS Delta rocket 4.1 10:32:18 47° SSW 10:33:30 58° W 10:38:36 10° NNW
Cosmos 1869 3.7 10:30:30 10° NNW 10:34:01 48° WNW 10:34:01 48° WNW
NOSS 3-4 (C) 4.4 10:34:48 24° W 10:36:49 31° NW 10:41:58 10° NNE
NOSS 3-4 (A) 4.4 10:35:02 24° W 10:37:05 30° NW 10:42:14 10° NNE
Cosmos 2219 Rocket 2.4 10:40:22 10° NNW 10:45:58 71° ENE 10:51:31 10° SSE
Cosmos 2058 Rocket 3.0 10:42:40 10° N 10:47:10 84° W 10:49:11 33° S
Okean 1-7 Rocket 3.9 10:48:00 27° SSE 10:50:21 65° E 10:54:51 10° NNE
Cosmos 614 Rocket 4.2 10:45:49 10° NNW 10:50:49 49° WSW 10:52:38 34° SSW
OAO 2 Rocket 3.3 10:48:43 34° WSW 10:51:00 86° S 10:56:16 10° E
Cosmos 1315 Rocket 2.6 10:50:41 51° SSW 10:51:33 75° W 10:55:26 10° N
Cosmos 1726 Rocket 4.2 10:48:01 10° NNW 10:52:00 36° W 10:52:17 35° W
CZ-4C R/B 3.4 10:47:16 10° NNW 10:55:01 74° ENE 11:03:52 10° SE
Cosmos 1758 Rocket 4.4 10:53:38 17° SSE 10:56:47 48° E 11:01:03 10° NNE
Cosmos 2297 Rocket 3.1 10:52:42 16° S 10:56:55 44° ESE 11:02:15 10° NE
Cosmos 1346 Rocket 3.0 10:54:33 10° NNW 10:58:18 47° W 10:58:57 42° SW
FENGYUN 3A 3.7 10:53:12 10° N 10:58:33 66° WNW 11:01:20 29° SSW
ADEOS II 3.3 10:55:05 10° NNW 10:59:25 27° WNW 11:01:05 23° W
SEDSat Delta rocket 3.3 10:57:53 32° WSW 10:59:50 56° S 11:05:03 10° ESE
FALCON 9 R/B 4.2 10:56:31 19° S 11:01:46 40° SE 11:23:42 10° ENE
Cosmos 2266 Rocket 3.9 10:57:52 10° N 11:04:09 88° W 11:10:15 10° S
Resurs 1-4 Rocket 4.2 11:07:18 10° NW 11:09:19 12° WNW 11:11:04 11° W
Cosmos 2333 Rocket 2.5 11:04:57 10° NW 11:10:14 42° WSW 11:14:15 17° S
Cosmos 2333 4.4 11:04:58 10° NNW 11:10:21 47° WSW 11:15:09 13° S
Cosmos 1655 Rocket 4.0 11:05:29 10° N 11:11:46 86° E 11:17:58 10° S
ALOS 2.3 11:07:17 10° N 11:11:52 62° WNW 11:14:29 25° SSW
RESURS DK-1 2.3 11:11:30 30° SW 11:13:23 70° WNW 11:17:30 10° NNE
COSMOS 2428 2.9 11:12:34 10° NNW 11:18:18 74° ENE 11:23:58 10° SSE
CZ-2C R/B 2.3 11:17:24 10° NNE 11:22:03 83° E 11:26:03 14° S
Cosmos 2322 3.6 11:16:54 10° NNW 11:22:37 77° WSW 11:28:18 10° SSE
PAYLOAD A 4.1 11:19:26 10° NNE 11:24:33 81° ESE 11:29:50 10° S
Cosmos 2227 Rocket 3.2 11:20:46 10° S 11:26:04 44° ESE 11:31:24 10° NE
Cosmos 1140 Rocket 3.4 11:23:36 10° NNW 11:28:48 90° WSW 11:33:55 10° SSE
Cosmos 1606 4.0 11:26:07 10° NW 11:28:51 20° W 11:29:26 19° WSW
Cosmos 2058 3.2 11:30:18 19° SSW 11:32:58 47° W 11:36:57 10° N
Lacrosse 4 Rocket 3.9 11:33:33 10° SE 11:36:09 17° ESE 11:38:45 10° ENE
Cosmos 1624 Rocket 4.0 11:32:32 12° SSW 11:37:20 84° WNW 11:42:34 10° NNE
YAOGAN 11 4.1 11:36:30 10° S 11:41:00 67° WSW 11:45:27 10° NNW
CZ-2C R/B 2.7 11:35:56 10° S 11:41:02 54° W 11:46:15 10° NNW
OAO 3 Copernicus 4.3 11:36:32 12° W 11:41:11 86° N 11:46:17 10° E
IRS-1D 4.2 11:37:23 10° N 11:42:10 38° WNW 11:46:12 13° SW
Tiangong -1.8 11:40:27 10° WNW 11:43:38 67° NNE 11:46:48 10° ESE
Cosmos-2242 2.9 11:39:58 10° NNW 11:44:13 69° W 11:48:28 10° S
Cosmos 2056 Rocket 3.6 11:39:24 12° SSW 11:44:24 71° WNW 11:49:48 10° NNE
Cosmos 1371 Rocket 4.1 11:41:18 12° SSW 11:46:03 64° WNW 11:51:17 10° N
Cosmos 1553 Rocket 4.2 11:42:09 10° S 11:48:10 72° E 11:54:15 10° N
YAOGAN 6 2.3 11:47:38 10° N 11:51:00 76° WNW 11:54:23 10° SSW
CZ-2C R/B 3.4 11:46:42 10° N 11:52:00 53° WNW 11:57:00 10° SSW
ERS-2 3.1 11:50:30 10° NNW 11:53:20 27° WNW 11:55:49 12° SW
BREEZE-M DEB (TANK) 3.0 11:49:45 10° NW 11:55:15 67° NE 11:57:38 10° ESE
